Theta_e
296 296 297 296 296 297 296 297 296 294 294 295 295 293 292 290 288 287 287 286 285 285 285 285 287 289 291 294 296 300 302 305 306 302 301 301 301 302 302 304 304 315 306 311
296 298 297 297 297 298 297 297 295 294 294 294 294 292 289 291 289 287 286 285 284 284 284 284 286 288 289 292 293 298 300 301 303 304 305 306 304 303 304 303 306 316 320 321
297 298 297 297 297 298 297 296 296 294 293 294 294 290 290 290 290 288 286 284 283 283 283 284 285 287 288 290 290 294 297 297 299 301 304 304 304 306 304 305 317 318 324 324
297 297 297 297 298 295 291 294 294 294 292 294 291 290 293 289 289 287 284 283 282 282 283 283 284 285 286 289 289 291 293 294 296 298 302 303 304 305 307 312 313 317 322 326
297 297 298 292 298 295 293 294 293 293 293 290 297 290 289 287 288 285 282 282 281 282 282 283 283 284 285 287 287 289 291 291 292 295 298 301 304 309 311 311 312 314 315 319
297 295 295 296 295 294 292 290 293 293 294 293 291 293 291 283 282 282 280 280 280 281 281 282 282 283 284 285 286 287 288 289 290 291 293 297 299 303 307 307 304 306 305 301
295 297 295 293 293 293 289 287 287 291 288 292 293 294 289 281 282 278 277 277 280 280 281 281 282 282 283 284 284 286 287 287 287 288 290 292 293 295 296 296 296 298 298 293
290 295 294 294 289 289 292 286 288 292 294 293 293 293 291 280 278 273 276 276 280 279 280 280 281 282 282 282 283 284 285 285 285 286 286 288 289 289 290 291 291 291 292 292
285 291 294 292 291 291 293 293 292 287 289 290 292 293 286 285 284 277 274 279 279 279 279 279 280 281 280 281 282 282 283 283 283 283 284 284 286 287 287 287 287 287 287 287
288 292 295 294 291 291 293 291 290 289 289 290 294 294 292 286 280 278 275 278 279 278 278 279 280 279 279 280 281 281 281 281 281 281 282 282 282 284 284 284 284 286 286 285
289 290 294 292 285 287 290 292 291 290 291 290 293 292 283 280 279 277 277 278 278 278 278 278 278 278 278 279 280 280 280 280 281 280 280 280 280 281 281 281 282 283 284 285
293 287 290 288 282 287 289 284 287 287 290 290 292 290 284 279 274 279 279 278 278 278 277 277 277 277 277 278 279 279 279 280 280 280 279 279 279 279 279 279 279 279 279 279
292 293 291 294 291 291 286 288 289 286 287 287 289 292 281 280 282 279 278 278 277 278 277 275 276 276 277 278 278 279 279 279 279 279 279 279 278 278 277 277 278 277 277 276
294 289 289 294 292 280 287 286 288 288 281 284 286 288 287 282 277 276 277 277 277 277 276 276 275 276 276 277 278 278 279 278 279 279 279 278 278 278 277 277 276 276 275 275
291 289 286 282 276 278 283 288 285 285 280 287 285 282 286 280 274 271 273 276 276 275 275 274 274 274 276 276 277 277 278 278 278 278 278 278 278 277 277 277 276 276 276 276
289 290 287 290 278 275 287 283 282 283 277 279 273 280 274 272 274 273 272 272 273 274 273 273 273 275 276 276 276 276 277 277 277 277 277 277 277 277 277 277 276 276 276 276
288 289 286 291 284 287 288 285 280 278 274 282 286 284 268 274 273 270 272 272 273 272 272 273 274 276 276 276 276 276 276 276 276 276 276 276 276 277 276 276 276 276 276 276
288 289 291 293 284 287 287 271 278 283 280 275 275 274 272 272 268 267 266 269 270 271 273 273 273 274 275 276 276 276 276 276 276 275 275 276 276 276 275 275 275 276 276 276
287 289 288 290 291 290 290 284 285 290 292 279 280 272 269 267 270 272 263 262 264 263 271 271 273 274 275 274 275 275 275 275 275 275 275 275 275 275 275 276 276 275 276 276
293 287 287 293 289 289 288 281 281 281 295 277 281 278 275 279 278 276 264 262 268 271 272 273 272 273 274 274 275 275 275 275 275 275 275 276 276 276 276 276 275 275 276 276
293 293 289 292 292 290 284 284 286 295 299 277 279 279 280 280 277 268 265 267 272 272 273 273 273 274 274 275 276 275 275 274 274 275 276 277 277 276 276 275 275 276 275 275
290 290 289 290 294 295 285 288 293 290 273 278 277 278 280 271 263 266 268 268 271 271 272 273 273 273 274 275 276 275 275 275 275 275 275 276 275 275 275 275 275 275 274 273
293 293 292 293 294 286 287 286 279 276 280 277 281 278 280 273 271 271 272 271 272 272 273 273 273 273 274 275 276 276 275 275 275 276 276 275 275 274 274 274 273 272 272 272
291 290 292 293 290 289 285 281 275 278 284 282 284 282 280 277 274 273 273 272 273 273 273 274 273 273 274 274 275 276 276 275 275 275 275 275 275 274 273 273 273 273 273 273
293 291 293 292 292 286 288 287 286 280 281 283 282 282 282 277 274 274 274 274 273 273 274 274 274 275 275 275 275 275 275 275 275 275 274 274 273 273 273 273 273 273 273 273
291 294 296 297 292 294 293 290 287 284 284 283 283 281 280 278 276 275 275 275 274 274 274 273 274 274 275 275 275 275 274 274 274 274 274 274 274 273 273 273 273 273 274 273
Wind_Speed
4 4 2 4 3 7 7 9 13 10 6 4 3 3 4 5 6 12 13 14 15 16 21 23 24 23 23 22 25 17 14 12 9 2 5 7 9 11 12 13 16 15 14 16
4 2 2 5 6 7 10 13 8 7 4 4 2 5 3 3 4 9 12 14 16 17 18 24 27 25 25 23 24 19 15 15 12 8 6 6 10 12 13 15 17 15 14 16
3 1 4 5 6 8 8 4 4 8 11 3 3 6 2 2 3 10 10 11 12 14 18 19 24 25 26 24 25 21 17 16 13 12 9 8 7 6 11 14 12 11 14 18
4 3 4 9 5 4 5 4 10 16 3 3 2 4 4 1 4 12 14 14 14 16 17 17 21 26 26 25 24 20 18 16 15 14 10 8 6 7 7 10 10 10 8 15
1 4 5 3 5 1 8 13 14 7 3 3 3 2 5 3 5 15 15 15 15 15 16 16 19 25 24 23 23 22 18 17 16 14 11 9 8 7 5 7 7 3 2 9
4 2 4 4 7 1 10 5 1 3 1 2 3 3 4 2 4 11 14 14 15 16 17 17 23 25 23 24 24 23 20 17 17 14 13 12 10 7 3 3 4 5 6 7
5 2 1 2 6 1 9 6 4 5 4 4 1 2 6 4 4 4 12 15 13 13 15 16 17 22 24 26 26 23 20 18 17 16 17 15 12 10 9 8 8 10 10 10
3 7 2 4 3 3 5 4 3 4 4 6 4 5 4 5 5 4 7 10 12 14 14 15 18 21 23 24 23 22 19 18 18 19 20 18 15 16 16 17 14 15 17 17
3 6 1 1 1 2 3 5 2 1 3 3 3 1 4 4 8 7 8 12 12 12 13 14 19 21 21 22 22 21 19 19 20 19 22 23 20 19 21 23 24 27 23 20
4 4 3 2 1 3 4 1 2 1 5 5 5 4 3 6 12 12 12 11 12 12 13 13 16 20 22 22 21 21 21 22 22 23 24 27 27 25 25 28 33 34 30 30
4 3 4 2 1 4 2 2 2 1 1 2 4 6 4 3 7 8 8 10 9 11 11 11 14 18 20 22 21 22 23 24 24 25 26 29 30 31 31 34 37 36 34 36
4 4 5 6 4 3 2 5 3 3 4 2 2 6 3 5 6 4 8 10 9 9 9 9 14 16 19 21 22 21 23 25 25 25 29 30 33 36 36 38 39 35 32 32
5 1 4 7 2 0 2 3 3 3 2 3 1 6 0 2 4 6 5 6 7 9 9 7 11 14 16 19 21 21 22 25 27 27 29 32 35 38 36 41 41 37 37 34
5 3 6 5 7 1 2 3 4 3 2 2 6 11 10 7 6 7 8 6 4 6 8 7 7 12 17 18 19 19 22 24 26 28 31 34 36 36 35 39 38 37 33 45
3 3 3 5 5 1 4 5 4 6 5 4 4 5 16 9 7 5 5 8 6 6 6 7 6 10 15 18 19 21 22 21 24 28 32 35 38 36 37 39 34 34 36 38
1 2 1 4 2 3 5 5 6 4 3 7 3 8 4 5 4 7 9 9 10 7 3 3 4 11 12 15 18 21 22 21 21 27 28 31 34 33 32 29 30 34 33 35
4 3 2 5 2 5 6 7 5 2 3 5 2 5 3 5 6 3 5 6 6 8 8 7 6 9 13 14 16 18 18 20 24 25 28 28 32 34 29 26 29 29 30 34
5 4 2 4 4 4 6 2 3 5 6 7 2 5 5 4 4 4 4 3 5 2 3 6 11 11 11 11 12 13 18 21 23 25 24 27 30 30 23 28 29 29 30 32
2 4 2 1 2 6 2 5 6 6 6 10 8 3 3 3 4 5 5 4 4 4 4 3 3 7 9 12 14 17 20 22 23 22 22 25 27 24 26 30 28 26 30 30
5 5 3 2 2 4 7 4 4 3 4 10 8 8 7 5 2 4 4 3 4 5 4 4 6 8 11 14 18 22 21 22 23 20 21 22 23 24 25 24 22 23 26 27
3 2 3 4 4 8 6 5 5 5 6 8 7 9 10 6 4 3 6 3 6 6 6 7 10 13 14 15 17 21 20 20 16 17 18 19 18 19 19 18 18 19 20 20
7 8 4 3 2 6 7 5 8 5 3 6 6 9 9 5 3 5 6 6 11 12 11 12 13 11 12 13 16 17 17 15 14 15 17 17 16 15 15 15 15 15 16 16
2 6 4 8 6 3 12 4 4 4 6 7 8 7 13 9 8 10 8 8 13 16 15 14 15 14 12 12 13 16 15 14 13 13 14 14 14 13 13 13 14 15 13 13
5 4 3 3 3 9 9 3 3 6 6 6 7 13 16 12 11 11 9 9 12 16 17 18 18 16 15 14 13 13 14 14 13 15 15 14 12 12 12 11 10 11 10 10
3 5 5 6 7 3 7 12 7 5 4 9 8 10 17 15 14 12 11 12 16 20 20 20 20 18 17 18 17 17 17 17 16 15 14 13 13 14 13 11 9 7 7 4
6 8 6 6 6 4 3 5 12 11 11 15 15 11 11 16 17 16 11 20 23 25 26 25 24 23 22 22 21 21 20 18 17 17 18 18 17 16 14 11 8 5 2 2
Wind_Direction
3 39 319 285 225 245 265 264 271 273 275 303 247 254 317 334 28 7 359 346 336 332 326 332 340 344 346 349 354 358 355 355 2 340 280 285 290 287 296 295 300 290 267 262
17 262 221 283 277 270 270 279 279 274 244 301 280 256 226 298 53 23 355 343 335 331 334 338 343 347 349 348 351 356 356 354 352 358 319 287 285 289 301 310 308 291 273 264
178 337 336 311 293 320 295 245 263 290 314 251 292 294 184 201 181 2 1 343 338 335 335 338 341 345 345 351 347 347 347 347 346 346 332 312 307 289 303 314 316 292 275 267
244 344 316 303 280 26 309 242 298 307 294 254 106 287 218 258 283 4 355 351 344 339 339 338 339 345 344 346 346 349 345 346 347 349 345 336 302 293 310 318 307 312 274 247
289 5 329 334 287 144 258 307 298 278 191 21 183 43 271 5 320 341 349 347 342 339 340 339 340 342 339 345 350 348 350 352 353 356 1 354 334 278 293 293 305 306 75 164
263 281 167 249 309 200 301 329 310 43 86 337 237 144 274 327 294 323 334 339 342 342 342 342 343 345 345 351 355 355 357 357 359 5 16 25 17 16 43 354 17 68 81 85
335 229 325 9 315 145 23 359 356 359 7 240 215 208 262 192 255 282 318 325 336 345 346 346 347 346 349 354 356 358 359 3 9 19 31 37 33 45 58 56 56 77 74 56
46 323 48 332 152 209 27 90 110 280 325 291 274 235 290 199 216 252 300 299 341 350 348 346 346 347 350 351 355 358 4 10 17 30 41 51 56 58 72 75 85 92 84 82
74 278 107 306 307 149 313 45 168 236 226 293 253 262 109 216 324 339 334 346 346 348 349 347 347 354 350 351 358 4 11 20 29 38 54 60 68 70 76 82 88 89 92 89
188 318 191 202 314 27 86 47 63 34 350 311 306 290 251 319 327 330 339 345 347 348 352 351 353 355 355 357 4 15 25 32 40 50 59 64 71 75 78 82 79 87 91 91
132 117 285 38 358 172 5 48 39 216 185 246 306 282 193 218 296 306 318 341 349 346 349 350 353 356 359 9 15 23 32 39 45 54 63 71 73 78 75 72 80 82 88 90
190 150 276 239 258 220 119 151 149 112 298 266 288 276 169 197 252 298 337 346 352 355 348 348 355 359 8 13 22 30 40 47 53 60 67 67 71 76 75 75 81 82 82 86
179 191 338 343 1 34 126 184 178 144 57 225 244 280 183 279 330 7 349 350 348 2 356 347 360 4 8 18 27 35 45 56 62 65 69 69 69 69 70 75 80 80 79 76
128 139 176 200 231 149 317 201 174 132 121 245 227 290 306 333 348 337 340 351 12 11 6 5 5 13 18 24 31 41 55 63 70 71 72 72 70 72 74 77 79 79 79 83
123 197 188 247 238 246 244 221 199 177 206 178 255 260 293 321 322 293 299 342 11 25 19 3 6 15 29 34 36 41 51 66 78 81 81 80 81 81 79 81 84 87 83 86
53 258 113 289 351 259 277 235 199 200 202 274 340 287 213 298 316 359 349 352 355 1 18 17 5 40 40 46 47 49 53 61 72 77 78 82 87 84 84 82 83 87 87 86
122 123 57 273 327 323 326 217 194 197 212 155 204 243 352 325 336 309 325 346 348 341 342 359 18 41 53 58 73 67 62 69 72 75 78 83 89 92 89 91 91 86 85 90
136 126 142 284 4 11 244 292 150 191 219 199 300 255 230 232 263 269 238 242 285 297 352 351 3 19 40 68 80 84 83 80 77 76 80 91 96 102 102 100 97 97 94 89
121 130 123 74 271 288 300 221 174 166 280 177 183 217 247 327 340 298 210 205 216 228 270 271 110 106 101 93 97 100 93 92 92 88 92 102 110 112 106 100 97 99 100 96
118 102 114 152 138 206 238 234 195 137 313 181 161 169 158 143 44 255 197 209 250 242 218 169 135 119 117 117 120 112 104 102 100 105 109 117 113 106 103 107 109 106 99 96
172 171 178 184 244 285 223 176 166 79 236 164 180 157 152 179 199 220 147 195 208 219 198 164 151 131 123 125 123 113 115 105 112 116 112 106 108 113 116 120 115 107 106 109
170 155 191 156 202 291 160 95 163 209 335 153 161 158 163 166 136 177 175 180 194 199 187 174 155 142 139 140 136 124 116 123 129 131 129 128 132 131 131 127 124 125 130 131
276 190 178 188 213 219 205 199 218 156 149 194 160 164 152 145 176 177 188 189 196 193 183 178 170 158 159 158 158 146 142 145 144 144 142 147 149 148 149 149 148 150 147 139
243 173 215 50 272 224 209 232 236 197 174 172 169 154 160 162 166 180 174 188 197 199 192 183 181 179 171 171 169 168 164 164 169 171 167 167 165 161 162 161 158 154 151 137
195 137 190 263 268 347 249 221 195 188 183 143 150 168 170 157 174 175 179 186 196 200 199 197 195 194 192 189 189 186 183 184 185 185 181 180 180 176 168 161 158 156 132 110
191 188 174 224 212 178 225 196 179 173 188 169 161 155 175 168 172 173 184 189 193 199 202 205 207 207 203 201 200 199 197 197 197 196 194 194 192 189 188 187 174 156 101 143